Tracking 31032 objects as of 14-Jul-2025
HD Live streaming from Space Station
objects crossing your sky now

CZ-6A DEB

Track CZ-6A DEB now!
10-day predictions


NORAD ID: 54509
Int'l Code: 2022-151JM
Perigee: 836.9 km
Apogee: 1,018.2 km
Inclination: 98.9 °
Period: 103.4 minutes
Semi major axis: 7298 km
RCS: Unknown
Launch date: November 11, 2022
Source: People's Republic of China (PRC)
Launch site: Taiyaun Space Center, China (TSC)

Note: This is SATELLITE DEBRIS
Your satellite tracking list
Your tracking list is empty




NASA's NSSDC Master Catalog

Two Line Element Set (TLE):
1 54509U 22151JM  25194.47336669  .00000016  00000-0  43325-4 0  9997
2 54509  98.8759 169.5925 0124199 283.4280  75.3064 13.92347976135321
Source of the keplerian elements: AFSPC